Current weather by "City, St" or "zip code"  
 
Advertise Here

Current Conditions: Montgomery, Dannelly Field, AL

Overcast


68.0 F

Last Updated on May 12 2021, 11:53 am CDT
Humidity: 81%
Wind Speed: N 8.1 mph
Barometer 30.11 in
Dewpoint: 62.1 F
Visibility: 10.00 mi
Precip: 00.03 in
Heat Index: NA
Wind Chill: NA
Current conditions at:

Montgomery, Dannelly Field, AL (KMGM)

Lat: 32.30028 Lon: 86.40611

Local Radar Image active severe weather and emergency alerts image image weather storm and storm spotter reports image weather observation monitoring service image
Local
Radar
Active
Alerts
Storm Reports Obs
Monitoring

Sign-up For Email & Text Message Weather Alert Notification Services


Advertise Here

Observation History for Montgomery, Dannelly Field, AL


Time Wind
(mph)
Vis
(mi)
Weather Precip (in) Temperature (F) Relative
Humidity
Wind
Chill
(F)
Heat
Index
(F)
Pressure
Air Dwpt altimeter
(in)
sea level
(mb)
Rmks
11:53 am CDT N 8.1 10.00 Overcast 00.03 68.0 62.1 81% NA NA 30.11 1019.3
10:53 am CDT N 10.4 10.00 Overcast 00.03 67.0 63.0 87% NA NA 30.11 1019.5
9:53 am CDT N 9.2 8.00 Rain 00.14 67.0 63.0 87% NA NA 30.10 1019.2
8:53 am CDT N 8.1 10.00 Overcast Trace 68.0 64.0 87% NA NA 30.08 1018.4
7:53 am CDT N 3.5 10.00 Overcast -- 67.0 64.0 91% NA NA 30.07 1018.1
6:53 am CDT N 5.8 10.00 Light Rain -- 67.0 64.0 91% NA NA 30.06 1017.7
5:53 am CDT W 4.6 10.00 Light Rain 00.05 67.0 64.9 93% NA NA 30.07 1017.9
4:53 am CDT SW 4.6 7.00 Rain Trace 67.0 64.9 93% NA NA 30.05 1017.3
3:53 am CDT S 3.5 10.00 Light Rain 00.03 67.0 64.9 93% NA NA 30.03 1016.6
2:53 am CDT N 0.0 10.00 Light Rain 00.01 68.0 64.9 90% NA NA 30.02 1016.4
1:53 am CDT S 3.5 10.00 Overcast -- 68.0 64.9 90% NA NA 30.03 1016.8
12:53 am CDT SW 3.5 10.00 Partly Cloudy -- 69.0 64.9 87% NA NA 30.04 1016.8
11:53 pm CDT S 3.5 10.00 Overcast -- 70.0 64.9 84% NA NA 30.06 1017.6
10:53 pm CDT N 0.0 10.00 Overcast -- 70.0 64.9 84% NA NA 30.07 1017.9
9:53 pm CDT N 0.0 10.00 Partly Cloudy -- 70.0 64.9 84% NA NA 30.08 1018.2
8:53 pm CDT N 0.0 10.00 Mostly Cloudy -- 70.0 64.9 84% NA NA 30.05 1017.3
7:53 pm CDT S 3.5 10.00 Fair -- 71.0 64.0 79% NA NA 30.03 1016.6
6:53 pm CDT S 4.6 10.00 Fair -- 74.0 64.9 74% NA NA 30.02 1016.2
5:53 pm CDT SW 3.5 10.00 Fair -- 75.0 64.0 69% NA NA 30.00 1015.6
4:53 pm CDT SW 12.7 10.00 A Few Clouds -- 76.0 64.9 69% NA NA 30.01 1015.9
3:53 pm CDT W 11.5 10.00 A Few Clouds -- 78.0 69.1 74% NA NA 30.04 1016.8
2:53 pm CDT W 8.1 10.00 Partly Cloudy -- 80.0 69.1 69% NA 83 30.04 1017.0
1:53 pm CDT W 8.1 10.00 A Few Clouds -- 81.0 69.1 67% NA 84 30.07 1017.9

Regional Weather Observation


Maxwell Air Force Base / Montgomery, AL (KMXF)

Overcast
65.0 F

Craig Field / Selma, AL (KSEM)

Overcast
64.0 F

Montgomery, Dannelly Field, AL (KMGM)

Overcast
68.0 F

Alexander City, Thomas C Russell Field Airport, AL (KALX)

Rain
61.0 F

Mac Crenshaw Memorial Airport, AL (KPRN)

Overcast
68.0 F

Alabaster, Shelby County Airport, AL (KEET)

Overcast
66.0 F
Advertise Here

Advertise Here